Location: Rockford
(42.2710°N, 89.0940°W)
Time: 21:11:40
(UTC-05:00)

Daily predictions for brighter satellites

Satellite Brightness Start Highest point End
(mag) Time Altitude Azimuth Time Altitude Azimuth Time Altitude Azimuth
Cosmos 1515 Rocket 3.7 21:04:05 10° N 21:08:30 63° E 21:12:51 10° SSE
DELTA 2 R/B (1) 3.7 21:04:19 10° W 21:09:49 64° S 21:15:18 10° ESE
H-2A R/B 4.4 21:08:03 10° SSW 21:11:34 34° W 21:15:05 10° NNW
Cosmos 1437 4.4 21:09:45 10° SE 21:12:10 19° E 21:14:36 10° NE
Cosmos 1777 Rocket 4.1 21:11:09 10° S 21:16:21 62° ESE 21:21:33 10° NNE
PSLV R/B 4.0 21:16:31 10° SE 21:19:23 36° ENE 21:22:14 10° N
COSMOS 2428 4.0 21:14:41 10° N 21:19:29 27° NE 21:24:16 10° ESE
ATLAS 5 CENTAUR R/B 4.3 21:15:38 10° WSW 21:19:57 29° NW 21:24:36 10° NNE
Cosmos 2266 Rocket 4.2 21:16:01 10° S 21:22:10 57° E 21:28:14 10° NNE
AVUM R/B 2.9 21:20:12 10° S 21:22:21 39° ESE 21:24:43 10° NE
Meteor 1-21 Rocket 4.2 21:16:57 10° S 21:22:29 85° E 21:28:03 10° N
Cosmos 1553 Rocket 4.3 21:17:01 10° N 21:23:25 77° W 21:29:44 10° S
Cosmos 2151 3.7 21:19:44 10° SSE 21:23:33 35° E 21:27:24 10° NNE
Cosmos 405 3.4 21:20:31 10° N 21:24:04 49° ENE 21:27:35 10° SSE
NOSS 3-1 (C) 4.4 21:21:38 10° SSE 21:26:17 25° ESE 21:31:16 10° ENE
YAOGAN 6 3.6 21:23:28 10° SE 21:26:44 31° ENE 21:29:59 10° N
Cosmos 304 Rocket 4.2 21:23:02 10° N 21:27:44 49° ENE 21:32:12 11° SE
Cosmos 1328 4.5 21:28:35 10° SSE 21:32:12 35° E 21:35:49 10° NNE
H-2A R/B 3.8 21:30:05 10° ESE 21:33:51 20° ENE 21:37:41 10° NNE
Cosmos 1151 Rocket 3.0 21:29:50 10° N 21:34:09 69° E 21:38:27 10° SSE
Cosmos 2219 Rocket 4.0 21:31:52 10° N 21:35:52 20° NE 21:39:51 10° E
CZ-2C R/B 2.5 21:35:44 10° SW 21:36:56 17° W 21:38:08 10° NW
MetOp-A 4.2 21:34:04 10° SSE 21:39:21 68° ENE 21:44:42 10° N
ARGOS 3.8 21:37:03 12° SE 21:41:43 42° ENE 21:46:47 10° N
Cosmos 1680 Rocket 3.6 21:39:48 10° NNW 21:45:02 70° ENE 21:49:36 14° SSE
SPOT 1/Viking Rocket 3.8 21:41:07 12° SE 21:45:38 53° ENE 21:50:40 10° N
Cosmos 923 Rocket 4.0 21:43:32 10° NNW 21:48:46 84° WSW 21:53:33 12° SSE
Cosmos 2058 3.4 21:46:02 13° SSE 21:49:26 41° E 21:53:18 10° NNE
CZ-4B R/B 3.7 21:47:43 10° NNE 21:52:56 58° E 21:58:02 10° S
H-2A R/B 3.4 21:49:44 10° SSW 21:53:59 40° W 21:58:15 10° NNW
Cosmos 1707 Rocket 4.1 21:50:59 10° N 21:55:09 43° ENE 21:58:04 18° SE
Cosmos 2219 3.4 21:50:01 10° S 21:55:35 54° ESE 22:01:12 10° NNE
Terra 3.2 21:55:46 14° ESE 21:58:45 25° ENE 22:02:37 10° NNE
SL-14 R/B 4.1 21:56:58 18° SE 21:59:14 34° E 22:02:52 10° NNE
Cosmos 1666 Rocket 4.2 21:56:36 17° SSE 21:59:33 38° E 22:03:40 10° NNE
Cosmos 1898 Rocket 4.3 21:56:18 15° SSE 21:59:46 31° E 22:04:20 10° NE
CZ-4 SHROUD 4.0 21:57:27 12° S 22:00:14 49° W 22:03:18 10° NNW
Cosmos 1726 3.0 21:57:19 10° N 22:00:49 35° ENE 22:02:46 21° SE
Meteor 1-27 4.5 21:55:26 10° N 22:01:03 55° ENE 22:05:11 18° SSE
Cosmos 1271 Rocket 4.2 21:58:24 10° NNE 22:01:31 23° ENE 22:03:14 17° ESE
Nadezhda 2 Rocket 4.4 21:55:50 10° S 22:01:57 77° E 22:08:04 10° N
Cosmos 2322 3.8 21:57:50 10° NNW 22:03:35 75° WSW 22:08:14 16° SSE
Cosmos 2237 Rocket 3.9 22:00:05 10° N 22:04:28 22° NE 22:08:42 10° E
Cosmos 2322 Rocket 4.1 22:03:00 10° NW 22:07:23 24° WSW 22:11:45 10° SSW
USA 229 DEB 4.3 22:02:24 10° SW 22:09:15 63° NW 22:16:14 10° NNE
USA 229 4.3 22:02:30 10° SW 22:09:21 63° NW 22:16:20 10° NNE
CZ-4 R/B 3.9 22:07:32 10° NNE 22:12:29 63° ESE 22:16:33 14° S
SL-16 R/B 4.2 22:13:14 10° NW 22:17:25 21° W 22:21:34 10° SSW
Cosmos 2360 Rocket 2.7 22:12:27 10° NNW 22:17:58 55° WSW 22:22:22 16° S
NOAA 11 4.2 22:16:38 19° SSE 22:20:37 87° E 22:26:08 10° NNW
NOSS 3-1 (A) 3.5 22:23:02 10° SSW 22:28:44 55° ESE 22:35:01 10° NE
Meteor 1-11 4.2 22:25:07 12° S 22:30:34 89° E 22:36:20 10° N
USA 32 4.1 22:25:52 10° N 22:31:07 64° E 22:34:01 26° SSE
Meteor 1-4 Rocket 2.8 22:29:10 10° N 22:32:55 58° ENE 22:34:10 36° SE
Delta 2 Rocket 4.2 22:33:07 10° WSW 22:35:08 23° SSW 22:35:08 23° SSW
Cosmos 2242 Rocket 3.6 22:32:32 10° N 22:37:01 73° E 22:39:06 31° SSE
Cosmos 1626 3.2 22:40:11 28° E 22:40:29 28° E 22:43:44 10° NNE
SL-08 RB Rocket 4.0 22:40:45 24° S 22:43:19 60° W 22:47:46 10° NNW
Cosmos 1300 3.5 22:40:22 10° NNW 22:44:04 47° W 22:46:04 24° SSW
Cosmos 2227 Rocket 2.8 22:42:28 28° SE 22:44:18 35° ESE 22:49:24 10° NE
DELTA 2 DEB (DPAF) 4.2 22:42:51 29° S 22:45:08 75° WSW 22:49:39 10° NNW
SL-23 DEB 4.4 22:46:57 10° WNW 22:51:03 37° SW 22:51:39 34° SSW
ATLAS 2AS CENTAUR R/B 3.5 22:48:10 26° SSE 22:51:23 37° ESE 22:58:30 10° NE
Cosmos 2333 Rocket 2.6 22:46:45 10° NNW 22:52:24 54° ENE 22:55:11 29° SE
Cosmos 1862 Rocket 3.9 22:49:22 10° N 22:53:36 48° ENE 22:54:46 38° SE
Cosmos 2298 Rocket 4.2 22:48:23 10° SSW 22:53:38 73° WNW 22:58:58 10° NNE
DELTA 2 R/B (1) 4.3 22:50:50 10° W 22:55:51 35° SSW 22:57:08 31° S
CARTOSAT-1 3.5 22:54:18 38° S 22:55:55 86° WSW 23:00:16 10° NNW
SL-16 R/B 3.8 22:51:48 10° N 22:56:27 25° NE 22:59:45 15° E
Sich 1 3.8 22:56:58 18° SSW 23:00:00 51° W 23:04:19 10° N
Cosmos 1633 Rocket 3.7 22:58:08 20° SSW 23:00:58 53° W 23:05:17 10° N
Cosmos 1937 Rocket 3.4 22:58:30 25° SSW 23:01:38 83° ESE 23:06:51 10° NNE
COSMOS 2428 3.3 22:58:32 10° NW 23:03:58 48° WSW 23:06:47 27° SSW
CZ-4C R/B 4.2 23:05:06 29° SW 23:06:05 36° W 23:09:20 10° NNW
Cosmos 1869 3.6 23:03:01 10° N 23:07:01 54° E 23:07:41 47° ESE
Cosmos 1455 2.1 23:03:13 10° N 23:07:01 67° E 23:07:33 57° SE
ATLAS 3B R/B 3.6 23:04:56 10° NNW 23:11:37 42° NE 23:16:06 19° ESE
Cosmos 2297 Rocket 2.7 23:10:25 36° SE 23:11:40 41° ESE 23:16:57 10° NE
H-2A R/B 2.4 23:10:13 30° S 23:12:45 60° W 23:18:08 10° NNW
Cosmos 990 Rocket 3.8 23:13:38 36° S 23:15:47 79° ESE 23:20:57 10° NNE
NOSS 3-1 (C) 4.0 23:10:44 10° SW 23:16:33 58° NW 23:23:05 10° NNE
Lacrosse 4 Rocket 3.3 23:14:10 10° N 23:17:47 24° NE 23:19:36 19° E
Cosmos 2219 Rocket 2.2 23:14:49 10° NNW 23:20:24 71° WSW 23:22:26 40° S
Cosmos 1241 Rocket 4.3 23:20:29 28° SSW 23:23:56 73° ESE 23:30:11 10° NE
Cosmos 389 Rocket 4.5 23:24:25 10° NNE 23:26:58 19° ENE 23:26:58 19° ENE
BREEZE-M DEB (TANK) 2.5 23:25:36 10° NW 23:27:41 68° NNE 23:27:41 68° NNE
ALOS 2 4.2 23:27:29 21° E 23:28:30 22° ENE 23:31:54 10° NNE
Spot 4 4.4 23:31:37 37° SSW 23:33:09 51° W 23:37:54 10° NNW
Nadezhda 1 Rocket 4.3 23:28:29 10° NNW 23:34:25 58° W 23:37:15 31° SSW
Cosmos 1980 3.7 23:30:13 10° NNW 23:35:52 74° WSW 23:37:35 46° S
Terra 2.9 23:34:40 28° SW 23:36:19 36° W 23:40:42 10° NNW
Cosmos 1346 4.4 23:39:16 35° WNW 23:39:16 35° WNW 23:42:00 10° N
H-2A R/B 4.0 23:37:12 10° NE 23:40:11 24° E 23:40:11 24° E
COSMOS 2455 3.2 23:37:29 10° NNW 23:43:27 59° NE 23:45:49 36° ESE
CZ-4B R/B 3.4 23:44:09 21° ENE 23:44:09 21° ENE 23:46:39 10° NNE
Cosmos 1125 Rocket 3.5 23:46:29 53° SSE 23:47:28 65° ESE 23:52:44 10° NNE
Cosmos 1048 Rocket 4.3 23:43:31 10° NNW 23:48:50 59° ENE 23:50:14 44° ESE
BREEZE-M TANK 3.7 23:32:53 10° WSW 23:48:52 82° NNW 23:52:39 10° ENE
Cosmos 2237 Rocket 2.3 23:43:22 10° NNW 23:49:00 63° WSW 23:50:31 46° SSW
Meteor 2-3 Rocket 4.5 23:49:35 35° ESE 23:50:35 37° E 23:55:49 10° NNE
Cosmos 2082 3.9 23:49:09 28° SW 23:52:12 68° WNW 23:57:56 10° NNE
Cosmos 1703 Rocket 3.3 23:49:53 10° N 23:54:16 88° E 23:54:35 77° SSE
Cosmos 2221 Rocket 3.5 23:50:29 10° N 23:55:04 85° E 23:55:32 71° SSE
Okean 1-7 3.2 23:51:15 10° N 23:55:29 54° E 23:55:37 54° E
